Language: 


Des rapports , des résumés tant et plus, au choix de chacun....


Données Historiques de Météogheer
Journalier Rapport pour Février 12, 2018 Unitée:  Impériale    Métrique   Les deux
Suivant Jour »
Journalier Hebdomadaire Mensuel Annuel Sur mesure
  Max: Min: Moyenne:
Température: 46.6 °F 32.4 °F 37.6 °F
Point de rosée: 33.8 °F 26.6 °F 30.4 °F
Humidité: 89% 49% 75%
Vent: 13.4mph 0mph 5.2mph
Rafales: 17.2mph - -
Vent- - WSW
Pression: 30 in 29.8 in -
Pluie: 0 in    
Historical Graphs
 
 
Données tabulaires pour Février 12, 2018
Heure Température Point de rosée Pression Vent Vent Rafales Humidité Pluie Taux (Horaire) Conditions
00:01 33.8 °F 32 °F 29.8 in West 4.3 mph 6.5 mph 89% 0 in
00:06 33.8 °F 32 °F 29.8 in West 6 mph 7.4 mph 89% 0 in
00:11 33.8 °F 32 °F 29.8 in West 4.9 mph 7.4 mph 89% 0 in
00:16 33.8 °F 32 °F 29.8 in West 6.3 mph 7.6 mph 89% 0 in
00:21 34 °F 32 °F 29.8 in WSW 6.5 mph 7.6 mph 89% 0 in
00:26 34 °F 32 °F 29.8 in West 6 mph 8.1 mph 89% 0 in
00:32 34 °F 32 °F 29.8 in West 4.9 mph 8.1 mph 89% 0 in
00:37 34.2 °F 32 °F 29.8 in West 4.3 mph 8.1 mph 89% 0 in
00:42 34.2 °F 32 °F 29.8 in West 6.5 mph 8.1 mph 89% 0 in
00:47 34.2 °F 32 °F 29.8 in West 4.7 mph 8.1 mph 89% 0 in
00:52 34.2 °F 32 °F 29.8 in WSW 7.2 mph 8.1 mph 88% 0 in
00:57 34.2 °F 32 °F 29.8 in West 5.4 mph 8.1 mph 88% 0 in
01:02 34.2 °F 32 °F 29.8 in West 5.6 mph 8.1 mph 88% 0 in
01:07 34.3 °F 32 °F 29.8 in WSW 6.3 mph 7.6 mph 88% 0 in
01:12 34.3 °F 32 °F 29.8 in WSW 3.6 mph 7.6 mph 88% 0 in
01:17 34.3 °F 32 °F 29.8 in Calm   7.6 mph 88% 0 in
01:22 34.3 °F 32 °F 29.8 in WNW 6 mph 6.5 mph 88% 0 in
01:27 34.3 °F 32 °F 29.8 in WSW 6.5 mph 7.2 mph 87% 0 in
01:32 34.5 °F 32 °F 29.8 in West 5.6 mph 7.4 mph 87% 0 in
01:37 34.5 °F 32 °F 29.8 in WSW 5.8 mph 8.5 mph 87% 0 in
01:42 34.5 °F 32 °F 29.8 in West 3.8 mph 8.5 mph 87% 0 in
01:47 34.5 °F 32 °F 29.8 in West 5.8 mph 8.7 mph 87% 0 in
01:52 34.7 °F 32 °F 29.8 in WSW 9.6 mph 10.7 mph 86% 0 in
01:57 34.9 °F 32 °F 29.8 in WSW 6.5 mph 10.7 mph 86% 0 in
02:02 34.9 °F 32 °F 29.8 in West 6 mph 10.7 mph 86% 0 in
02:07 34.9 °F 32 °F 29.8 in WSW 6.5 mph 10.7 mph 86% 0 in
02:12 35.1 °F 32 °F 29.8 in West 3.4 mph 8.5 mph 86% 0 in
02:17 35.2 °F 32 °F 29.8 in WSW 4.3 mph 7.8 mph 85% 0 in
02:22 35.2 °F 32 °F 29.8 in SSW 6 mph 8.1 mph 85% 0 in
02:27 35.4 °F 32 °F 29.8 in WNW 5.8 mph 10.3 mph 85% 0 in
02:33 35.6 °F 32 °F 29.8 in WSW 7.2 mph 10.3 mph 84% 0 in
02:38 35.6 °F 32 °F 29.8 in West 3.8 mph 8.7 mph 84% 0 in
02:43 35.6 °F 32 °F 29.8 in NW 7.8 mph 9.2 mph 83% 0 in
02:48 35.6 °F 32 °F 29.8 in West 6 mph 9.2 mph 83% 0 in
02:53 35.6 °F 32 °F 29.8 in West 2 mph 11.9 mph 83% 0 in
02:58 35.6 °F 32 °F 29.8 in West 8.5 mph 11.9 mph 83% 0 in
03:03 35.6 °F 32 °F 29.9 in WSW 1.3 mph 8.9 mph 82% 0 in
03:08 35.6 °F 32 °F 29.9 in WNW 6.7 mph 8.9 mph 82% 0 in
03:13 35.6 °F 32 °F 29.9 in SSW 5.8 mph 8.7 mph 82% 0 in
03:18 35.6 °F 32 °F 29.9 in South 4.9 mph 10.3 mph 82% 0 in
03:23 35.6 °F 32 °F 29.9 in NW 5.4 mph 10.3 mph 82% 0 in
03:28 35.6 °F 32 °F 29.9 in WSW 6.9 mph 9.6 mph 82% 0 in
03:33 35.6 °F 32 °F 29.9 in West 5.4 mph 10.5 mph 82% 0 in
03:38 35.6 °F 32 °F 29.9 in WNW 9.8 mph 11 mph 82% 0 in
03:43 35.6 °F 30.2 °F 29.9 in WSW 6.5 mph 11 mph 81% 0 in
03:48 35.6 °F 32 °F 29.9 in WSW 5.6 mph 11 mph 82% 0 in
03:53 35.4 °F 30.2 °F 29.9 in West 7.6 mph 9.2 mph 82% 0 in
03:58 35.4 °F 30.2 °F 29.9 in WSW 7.4 mph 10.3 mph 82% 0 in
04:03 35.4 °F 30.2 °F 29.9 in West 7.6 mph 10.3 mph 82% 0 in
04:08 35.4 °F 30.2 °F 29.9 in WSW 4.9 mph 10.3 mph 82% 0 in
04:14 35.2 °F 30.2 °F 29.9 in WNW 7.6 mph 10.3 mph 82% 0 in
04:19 35.2 °F 30.2 °F 29.9 in West 7.2 mph 11.9 mph 82% 0 in
04:24 35.2 °F 30.2 °F 29.9 in West 2.9 mph 11.9 mph 82% 0 in
04:29 35.4 °F 30.2 °F 29.8 in West 3.8 mph 9.6 mph 83% 0 in
04:34 35.4 °F 30.2 °F 29.8 in West 5.6 mph 9.6 mph 83% 0 in
04:39 35.4 °F 30.2 °F 29.8 in West 6 mph 9.6 mph 83% 0 in
04:44 35.2 °F 30.2 °F 29.8 in West 8.7 mph 8.9 mph 83% 0 in
04:49 35.1 °F 30.2 °F 29.8 in WNW 5.6 mph 8.7 mph 82% 0 in
04:54 35.1 °F 30.2 °F 29.8 in West 6.3 mph 11 mph 82% 0 in
04:59 35.1 °F 30.2 °F 29.9 in West 6 mph 11 mph 82% 0 in
05:04 35.1 °F 30.2 °F 29.9 in West 5.8 mph 10.5 mph 82% 0 in
05:09 35.1 °F 30.2 °F 29.9 in WSW 9.4 mph 10.5 mph 83% 0 in
05:14 35.1 °F 30.2 °F 29.9 in WSW 6.7 mph 9.4 mph 83% 0 in
05:19 34.9 °F 30.2 °F 29.9 in West 5.4 mph 8.5 mph 83% 0 in
05:24 34.9 °F 30.2 °F 29.9 in WSW 7.2 mph 10.7 mph 83% 0 in
05:29 34.9 °F 30.2 °F 29.9 in West 6.3 mph 10.7 mph 83% 0 in
05:34 34.9 °F 30.2 °F 29.9 in WSW 4.9 mph 10.3 mph 82% 0 in
05:39 34.7 °F 30.2 °F 29.9 in West 5.6 mph 8.7 mph 83% 0 in
05:44 34.5 °F 30.2 °F 29.9 in West 7.6 mph 8.7 mph 83% 0 in
05:49 34.5 °F 30.2 °F 29.9 in West 7.4 mph 8.7 mph 83% 0 in
05:54 34.5 °F 30.2 °F 29.9 in WNW 7.4 mph 8.7 mph 83% 0 in
05:59 34.5 °F 30.2 °F 29.9 in West 7.6 mph 8.5 mph 83% 0 in
06:04 34.5 °F 30.2 °F 29.9 in West 6.5 mph 8.5 mph 83% 0 in
06:10 34.5 °F 30.2 °F 29.9 in West 4 mph 8.5 mph 83% 0 in
06:15 34.3 °F 30.2 °F 29.9 in West 6 mph 8.1 mph 83% 0 in
06:20 34.2 °F 30.2 °F 29.9 in WSW 5.6 mph 7.8 mph 84% 0 in
06:25 34 °F 30.2 °F 29.9 in WSW 6.7 mph 7.8 mph 84% 0 in
06:30 33.8 °F 30.2 °F 29.9 in WSW 5.4 mph 8.5 mph 84% 0 in
06:35 33.8 °F 30.2 °F 29.9 in West 7.8 mph 8.9 mph 84% 0 in
06:40 33.6 °F 30.2 °F 29.9 in Calm   8.9 mph 85% 0 in
06:45 33.6 °F 30.2 °F 29.9 in WSW 6.5 mph 7.8 mph 85% 0 in
06:50 33.6 °F 30.2 °F 29.9 in WSW 6.5 mph 8.7 mph 85% 0 in
06:55 33.4 °F 30.2 °F 29.9 in West 7.6 mph 9.2 mph 86% 0 in
07:00 33.4 °F 30.2 °F 29.9 in West 5.6 mph 9.2 mph 86% 0 in
07:05 33.3 °F 30.2 °F 29.9 in WSW 4.3 mph 7.8 mph 86% 0 in
07:10 33.1 °F 30.2 °F 29.9 in WSW 4.3 mph 7.6 mph 86% 0 in
07:15 33.1 °F 30.2 °F 29.9 in WSW 6.3 mph 7.6 mph 86% 0 in
07:20 33.1 °F 30.2 °F 29.9 in Calm   6.5 mph 86% 0 in
07:25 32.9 °F 30.2 °F 29.9 in West 4 mph 6.3 mph 86% 0 in
07:30 32.9 °F 30.2 °F 29.9 in West 5.4 mph 8.1 mph 86% 0 in
07:35 32.9 °F 30.2 °F 29.9 in West 3.6 mph 8.1 mph 87% 0 in
07:40 33.1 °F 30.2 °F 29.9 in West 4.3 mph 8.1 mph 87% 0 in
07:45 32.9 °F 30.2 °F 29.9 in WSW 5.6 mph 8.1 mph 87% 0 in
07:50 32.7 °F 30.2 °F 29.9 in West 5.4 mph 8.1 mph 87% 0 in
07:55 32.7 °F 30.2 °F 29.9 in WSW 4.9 mph 8.1 mph 87% 0 in
08:01 32.5 °F 30.2 °F 29.9 in West 6.5 mph 7.2 mph 87% 0 in
08:06 32.5 °F 30.2 °F 29.9 in West 3.6 mph 7.4 mph 87% 0 in
08:11 32.5 °F 30.2 °F 29.9 in West 5.8 mph 7.4 mph 88% 0 in
08:16 32.7 °F 30.2 °F 29.9 in WSW 3.1 mph 7.4 mph 88% 0 in
08:21 32.5 °F 30.2 °F 29.9 in WSW 1.3 mph 7.8 mph 88% 0 in
08:26 32.5 °F 30.2 °F 29.9 in West 4.3 mph 7.8 mph 88% 0 in
08:31 32.5 °F 30.2 °F 29.9 in West 3.8 mph 7.6 mph 88% 0 in
08:36 32.7 °F 30.2 °F 29.9 in WSW 6.9 mph 7.6 mph 88% 0 in
08:41 32.5 °F 30.2 °F 29.9 in Calm   7.4 mph 88% 0 in
08:46 32.5 °F 30.2 °F 29.9 in WSW 4.3 mph 6.9 mph 88% 0 in
08:51 32.4 °F 30.2 °F 29.9 in WSW 4 mph 6 mph 88% 0 in
08:56 32.5 °F 30.2 °F 29.9 in WSW 3.4 mph 6 mph 88% 0 in
09:01 32.9 °F 30.2 °F 29.9 in West 4.9 mph 6 mph 89% 0 in
09:06 33.1 °F 30.2 °F 29.9 in West 2.9 mph 5.6 mph 89% 0 in
09:11 33.3 °F 30.2 °F 29.9 in West 2.9 mph 6.5 mph 89% 0 in
09:16 33.6 °F 32 °F 30 in WSW 4.9 mph 6.5 mph 89% 0 in
09:21 34 °F 30.2 °F 30 in WSW 5.4 mph 6.3 mph 88% 0 in
09:26 34.3 °F 32 °F 30 in WSW 5.4 mph 6 mph 88% 0 in
09:31 34.7 °F 32 °F 30 in West 6 mph 7.8 mph 88% 0 in
09:36 34.9 °F 32 °F 30 in SSW 3.4 mph 7.8 mph 87% 0 in
09:41 35.2 °F 32 °F 30 in West 5.4 mph 6.5 mph 87% 0 in
09:46 35.4 °F 32 °F 30 in WSW 6.3 mph 8.7 mph 87% 0 in
09:51 35.6 °F 32 °F 30 in WSW 4.9 mph 8.7 mph 86% 0 in
09:56 36 °F 32 °F 30 in West 3.4 mph 7.6 mph 85% 0 in
10:01 36.1 °F 33.8 °F 30 in West 5.4 mph 7.6 mph 85% 0 in
10:07 36.7 °F 33.8 °F 30 in Calm   7.4 mph 85% 0 in
10:12 37 °F 33.8 °F 30 in WSW 4.7 mph 7.4 mph 84% 0 in
10:17 37.2 °F 33.8 °F 29.9 in WSW 4.9 mph 7.4 mph 84% 0 in
10:22 37.6 °F 33.8 °F 29.9 in West 6.5 mph 7.2 mph 83% 0 in
10:27 37.9 °F 33.8 °F 29.9 in WSW 3.1 mph 7.2 mph 83% 0 in
10:32 38.1 °F 33.8 °F 30 in WSW 4 mph 8.1 mph 82% 0 in
10:37 38.5 °F 33.8 °F 30 in WSW 6.3 mph 8.1 mph 81% 0 in
10:42 38.7 °F 33.8 °F 30 in WSW 6.5 mph 7.4 mph 81% 0 in
10:47 39 °F 33.8 °F 30 in Calm   8.7 mph 80% 0 in
10:52 39.4 °F 33.8 °F 30 in WSW 2 mph 8.7 mph 79% 0 in
10:57 39.7 °F 33.8 °F 30 in West 7.8 mph 10.1 mph 78% 0 in
11:02 39.9 °F 33.8 °F 30 in WNW 6.3 mph 10.1 mph 76% 0 in
11:07 40.1 °F 33.8 °F 30 in West 8.1 mph 10.3 mph 76% 0 in
11:12 40.3 °F 33.8 °F 30 in West 3.1 mph 10.3 mph 75% 0 in
11:17 40.6 °F 33.8 °F 30 in West 4 mph 9.2 mph 75% 0 in
11:22 40.6 °F 32 °F 30 in West 7.6 mph 12.1 mph 73% 0 in
11:27 40.8 °F 33.8 °F 30 in WSW 5.4 mph 12.3 mph 73% 0 in
11:32 41.2 °F 33.8 °F 30 in WSW 7.8 mph 12.3 mph 73% 0 in
11:37 41.7 °F 33.8 °F 30 in West 8.5 mph 8.7 mph 73% 0 in
11:42 41.5 °F 32 °F 30 in WSW 5.8 mph 13.2 mph 69% 0 in
11:47 41.7 °F 33.8 °F 30 in WSW 8.9 mph 13.2 mph 70% 0 in
11:52 41.7 °F 32 °F 30 in West 7.2 mph 10.7 mph 69% 0 in
11:57 42.1 °F 33.8 °F 30 in West 10.3 mph 12.3 mph 69% 0 in
12:02 42.3 °F 33.8 °F 30 in WNW 4.9 mph 12.3 mph 69% 0 in
12:07 42.6 °F 33.8 °F 30 in West 10.7 mph 12.3 mph 69% 0 in
12:12 42.4 °F 33.8 °F 30 in NW 5.4 mph 12.8 mph 67% 0 in
12:17 42.8 °F 32 °F 30 in WSW 7.8 mph 12.8 mph 66% 0 in
12:22 43 °F 32 °F 30 in West 12.3 mph 12.3 mph 66% 0 in
12:27 43.3 °F 33.8 °F 30 in WSW 7.4 mph 12.3 mph 65% 0 in
12:32 43.5 °F 32 °F 30 in West 8.7 mph 10.5 mph 64% 0 in
12:37 43.7 °F 33.8 °F 30 in West 2.9 mph 10.1 mph 64% 0 in
12:42 43.9 °F 32 °F 30 in West 8.7 mph 12.3 mph 61% 0 in
12:47 43.7 °F 32 °F 30 in WSW 9.6 mph 12.3 mph 60% 0 in
12:53 43.5 °F 30.2 °F 30 in WSW 8.7 mph 13.2 mph 59% 0 in
12:58 43.9 °F 32 °F 30 in WNW 5.4 mph 13.2 mph 62% 0 in
13:03 43.9 °F 30.2 °F 30 in WSW 10.1 mph 13.2 mph 59% 0 in
13:08 44.1 °F 30.2 °F 30 in North 6.9 mph 13.2 mph 59% 0 in
13:13 44.2 °F 30.2 °F 30 in West 8.1 mph 13.2 mph 58% 0 in
13:18 44.2 °F 30.2 °F 30 in WSW 4.3 mph 13.2 mph 56% 0 in
13:23 43.9 °F 30.2 °F 30 in West 8.1 mph 9.8 mph 56% 0 in
13:28 43.3 °F 28.4 °F 30 in WNW 4.3 mph 8.7 mph 56% 0 in
13:33 43.3 °F 30.2 °F 30 in West 10.5 mph 10.5 mph 57% 0 in
13:38 43.7 °F 30.2 °F 30 in SSW 5.6 mph 10.5 mph 59% 0 in
13:43 44.8 °F 30.2 °F 30 in South 4.9 mph 10.5 mph 58% 0 in
13:48 45.7 °F 32 °F 30 in West 7.2 mph 10.5 mph 58% 0 in
13:53 45.9 °F 32 °F 30 in WSW 9.6 mph 11 mph 57% 0 in
13:58 46.2 °F 32 °F 30 in WSW 7.6 mph 12.5 mph 57% 0 in
14:03 45.5 °F 30.2 °F 30 in West 7.2 mph 12.8 mph 55% 0 in
14:08 45.9 °F 30.2 °F 30 in West 7.8 mph 12.8 mph 54% 0 in
14:13 46 °F 30.2 °F 30 in WSW 10.7 mph 10.7 mph 53% 0 in
14:18 45.9 °F 30.2 °F 30 in West 6.3 mph 13.9 mph 52% 0 in
14:23 46 °F 30.2 °F 30 in West 6.7 mph 13.9 mph 53% 0 in
14:28 46.2 °F 30.2 °F 30 in WSW 7.6 mph 12.5 mph 52% 0 in
14:33 46.6 °F 30.2 °F 30 in West 5.8 mph 12.3 mph 53% 0 in
14:38 46.4 °F 30.2 °F 30 in West 11 mph 12.1 mph 52% 0 in
14:43 46.2 °F 30.2 °F 30 in WSW 10.1 mph 15.2 mph 52% 0 in
14:48 46 °F 28.4 °F 30 in WSW 10.5 mph 15.2 mph 50% 0 in
14:53 46 °F 28.4 °F 30 in West 7.6 mph 13.2 mph 51% 0 in
14:58 45.5 °F 28.4 °F 30 in West 12.8 mph 17.2 mph 49% 0 in
15:04 45.3 °F 26.6 °F 30 in WSW 13.4 mph 17.2 mph 49% 0 in
15:09 45.3 °F 26.6 °F 30 in West 10.3 mph 15.4 mph 49% 0 in
15:14 45.7 °F 28.4 °F 30 in WSW 8.5 mph 15.4 mph 50% 0 in
15:19 45.1 °F 28.4 °F 30 in WSW 8.5 mph 13 mph 50% 0 in
15:24 45.1 °F 28.4 °F 30 in West 8.5 mph 12.3 mph 51% 0 in
15:29 45 °F 28.4 °F 30 in West 11.2 mph 11.2 mph 51% 0 in
15:34 45.3 °F 28.4 °F 30 in WSW 7.8 mph 11.2 mph 52% 0 in
15:39 45.1 °F 26.6 °F 30 in West 8.7 mph 13.9 mph 49% 0 in
15:44 45.1 °F 26.6 °F 30 in WSW 9.8 mph 13.9 mph 49% 0 in
15:49 44.8 °F 26.6 °F 30 in West 5.6 mph 13.2 mph 50% 0 in
15:54 44.8 °F 26.6 °F 30 in West 8.7 mph 13.2 mph 50% 0 in
15:59 45.1 °F 28.4 °F 30 in West 11 mph 12.8 mph 50% 0 in
16:04 44.8 °F 26.6 °F 30 in WSW 8.7 mph 15.2 mph 49% 0 in
16:09 44.8 °F 26.6 °F 30 in WSW 12.8 mph 15.2 mph 49% 0 in
16:14 44.4 °F 26.6 °F 30 in West 10.1 mph 12.8 mph 50% 0 in
16:19 44.1 °F 26.6 °F 30 in WSW 7.4 mph 12.8 mph 50% 0 in
16:24 44.1 °F 26.6 °F 30 in West 7.6 mph 10.7 mph 51% 0 in
16:29 43.7 °F 28.4 °F 30 in West 9.4 mph 10.1 mph 52% 0 in
16:34 43.9 °F 28.4 °F 30 in SW 6 mph 10.1 mph 53% 0 in
16:39 43.9 °F 28.4 °F 30 in WNW 3.6 mph 10.1 mph 53% 0 in
16:45 43.7 °F 28.4 °F 29.9 in West 3.8 mph 9.6 mph 53% 0 in
16:50 43.5 °F 28.4 °F 29.9 in West 5.8 mph 9.6 mph 53% 0 in
16:55 43.3 °F 28.4 °F 29.9 in WSW 10.3 mph 10.3 mph 54% 0 in
17:00 43 °F 28.4 °F 30 in WSW 10.7 mph 13.2 mph 54% 0 in
17:05 42.8 °F 28.4 °F 30 in WSW 7.6 mph 13.2 mph 54% 0 in
17:10 42.4 °F 28.4 °F 30 in WSW 6 mph 10.7 mph 55% 0 in
17:15 42.3 °F 26.6 °F 30 in WSW 8.1 mph 11.2 mph 54% 0 in
17:20 41.9 °F 28.4 °F 30 in WSW 4.9 mph 11.2 mph 56% 0 in
17:25 41.5 °F 28.4 °F 30 in West 6 mph 9.4 mph 57% 0 in
17:30 41.4 °F 28.4 °F 29.9 in WSW 7.4 mph 9.4 mph 59% 0 in
17:35 41 °F 28.4 °F 29.9 in WSW 7.2 mph 10.1 mph 58% 0 in
17:40 40.5 °F 26.6 °F 29.9 in West 8.7 mph 10.1 mph 59% 0 in
17:45 40.3 °F 28.4 °F 30 in WSW 5.4 mph 8.7 mph 60% 0 in
17:50 39.9 °F 28.4 °F 30 in WSW 5.4 mph 8.7 mph 62% 0 in
17:55 39.2 °F 28.4 °F 30 in WSW 2.2 mph 7.6 mph 63% 0 in
18:00 38.5 °F 28.4 °F 30 in Calm   5.4 mph 64% 0 in
18:06 38.1 °F 28.4 °F 30 in SW 4.3 mph 5.6 mph 65% 0 in
18:11 37.9 °F 28.4 °F 30 in WSW 4.3 mph 6 mph 67% 0 in
18:16 37.6 °F 28.4 °F 29.9 in WSW 4.9 mph 6.3 mph 68% 0 in
18:21 37.6 °F 28.4 °F 29.9 in SW 4.9 mph 7.4 mph 68% 0 in
18:26 37.6 °F 28.4 °F 29.9 in WSW 5.8 mph 7.4 mph 69% 0 in
18:31 37.4 °F 28.4 °F 30 in WSW 4.3 mph 6.5 mph 69% 0 in
18:36 37 °F 28.4 °F 30 in Calm   6.5 mph 69% 0 in
18:41 36.7 °F 28.4 °F 30 in Calm   5.6 mph 70% 0 in
18:46 36.3 °F 28.4 °F 30 in SSW 4 mph 5.8 mph 70% 0 in
18:51 36.5 °F 30.2 °F 30 in Calm   6 mph 72% 0 in
18:56 36.7 °F 30.2 °F 30 in SW 6 mph 6.5 mph 72% 0 in
19:01 36.9 °F 30.2 °F 29.9 in SSW 3.8 mph 6.7 mph 72% 0 in
19:06 36.9 °F 28.4 °F 29.9 in SSW 3.8 mph 6.7 mph 71% 0 in
19:11 36.9 °F 30.2 °F 29.9 in Calm   6 mph 72% 0 in
19:16 37 °F 30.2 °F 30 in WSW 2.7 mph 6 mph 71% 0 in
19:21 37.2 °F 30.2 °F 30 in SSW 3.6 mph 6 mph 71% 0 in
19:26 37.2 °F 30.2 °F 30 in Calm   6 mph 71% 0 in
19:31 37 °F 30.2 °F 30 in Calm   6 mph 71% 0 in
19:36 36.7 °F 28.4 °F 30 in Calm   4.3 mph 71% 0 in
19:41 36.5 °F 28.4 °F 30 in Calm   4.3 mph 71% 0 in
19:46 36.1 °F 28.4 °F 30 in Calm   2.9 mph 71% 0 in
19:52 35.8 °F 28.4 °F 30 in Calm   2.9 mph 72% 0 in
19:57 35.6 °F 28.4 °F 30 in Calm   2.9 mph 72% 0 in
20:02 35.6 °F 28.4 °F 29.9 in Calm   1.3 mph 73% 0 in
20:07 35.4 °F 28.4 °F 29.9 in Calm   4 mph 73% 0 in
20:12 35.4 °F 28.4 °F 29.9 in South 0.9 mph 4 mph 74% 0 in
20:17 35.2 °F 28.4 °F 29.9 in Calm   4.3 mph 74% 0 in
20:22 35.1 °F 28.4 °F 29.9 in SSW 3.1 mph 4.3 mph 75% 0 in
20:27 35.1 °F 28.4 °F 29.9 in Calm   4.3 mph 76% 0 in
20:32 34.9 °F 28.4 °F 30 in Calm   3.4 mph 76% 0 in
20:37 34.9 °F 28.4 °F 30 in SSW 0.9 mph 4.9 mph 76% 0 in
20:42 35.1 °F 28.4 °F 30 in SW 3.8 mph 5.6 mph 77% 0 in
20:47 35.2 °F 28.4 °F 29.9 in SW 4 mph 6.3 mph 78% 0 in
20:52 35.4 °F 30.2 °F 29.9 in SSW 3.8 mph 6.3 mph 78% 0 in
20:57 35.8 °F 30.2 °F 29.9 in SSW 5.8 mph 6 mph 77% 0 in
21:02 36.1 °F 30.2 °F 30 in SSW 4.9 mph 8.5 mph 78% 0 in
21:07 36.5 °F 30.2 °F 30 in SSW 5.6 mph 8.5 mph 77% 0 in
21:12 36.7 °F 30.2 °F 30 in SW 4.9 mph 7.4 mph 77% 0 in
21:17 36.9 °F 30.2 °F 30 in SSW 5.4 mph 7.2 mph 77% 0 in
21:23 36.9 °F 30.2 °F 30 in SSW 5.6 mph 6.5 mph 77% 0 in
21:28 36.9 °F 30.2 °F 30 in SSW 4.7 mph 7.2 mph 76% 0 in
21:33 36.9 °F 30.2 °F 29.9 in SSW 5.4 mph 7.8 mph 76% 0 in
21:38 36.9 °F 30.2 °F 29.9 in SSW 1.1 mph 7.8 mph 76% 0 in
21:43 36.7 °F 30.2 °F 29.9 in SW 5.4 mph 6.5 mph 76% 0 in
21:48 36.5 °F 30.2 °F 30 in SSW 5.6 mph 7.4 mph 76% 0 in
21:53 36.5 °F 30.2 °F 30 in Calm   7.4 mph 76% 0 in
21:58 36.3 °F 30.2 °F 30 in SSW 4.9 mph 6.5 mph 77% 0 in
22:03 36.1 °F 30.2 °F 30 in Calm   6.5 mph 77% 0 in
22:08 36 °F 30.2 °F 30 in Calm   5.4 mph 77% 0 in
22:13 35.8 °F 30.2 °F 30 in SW 3.1 mph 4.9 mph 78% 0 in
22:18 35.8 °F 30.2 °F 30 in Calm   4.9 mph 78% 0 in
22:23 35.8 °F 30.2 °F 30 in Calm   4 mph 78% 0 in
22:28 35.6 °F 30.2 °F 30 in Calm   4.9 mph 79% 0 in
22:33 35.4 °F 30.2 °F 30 in South 4.3 mph 4.9 mph 79% 0 in
22:38 35.2 °F 30.2 °F 30 in SSW 3.8 mph 4.3 mph 79% 0 in
22:43 35.1 °F 30.2 °F 30 in Calm   4.3 mph 79% 0 in
22:48 34.9 °F 30.2 °F 30 in Calm   3.1 mph 79% 0 in
22:53 34.5 °F 30.2 °F 30 in Calm   3.8 mph 80% 0 in
22:59 34.5 °F 30.2 °F 30 in South 2.2 mph 3.8 mph 80% 0 in
23:04 34.3 °F 30.2 °F 30 in Calm   4 mph 81% 0 in
23:09 34.2 °F 30.2 °F 30 in Calm   4 mph 81% 0 in
23:14 34 °F 30.2 °F 30 in SSW 3.6 mph 3.8 mph 82% 0 in
23:19 34 °F 30.2 °F 30 in Calm   5.8 mph 84% 0 in
23:24 34 °F 30.2 °F 30 in Calm   6.9 mph 84% 0 in
23:29 34 °F 30.2 °F 29.9 in SSW 4.3 mph 6.9 mph 85% 0 in
23:34 34 °F 30.2 °F 29.9 in Calm   6 mph 85% 0 in
23:39 34 °F 30.2 °F 29.9 in South 4.3 mph 4.3 mph 85% 0 in
23:44 33.8 °F 30.2 °F 29.9 in Calm   4.3 mph 85% 0 in
23:49 33.6 °F 30.2 °F 29.9 in Calm   3.8 mph 86% 0 in
23:54 33.6 °F 30.2 °F 29.9 in Calm   3.4 mph 86% 0 in
23:59 33.4 °F 30.2 °F 29.9 in Calm   1.3 mph 86% 0 in
Données Historique de Météo Turbie

Mise a jour : 18/06/2018 01:33:12
Généré par Cumulus 1.9.4 (1099)